This demonstration page uses our WeatherBlox Daily Observations layout. Learn more.

Hourly Observations for April 27, 2018

Temp ( °F °C ) Dew Point ( °F °C ) Humidity (%) Winds ( mph kmh ) Pressure ( in mb ) Visibility ( mi km ) Precip ( " mm )
12:15 am 00:15 Clear 41 5.1 30 -1 65 65 W 5 7 30.18 1022 10 16.0934 0 0
12:35 am 00:35 Clear 43 6 30 -1.1 61 61 W 6 9 30.18 1022 10 16.0934 0 0
12:55 am 00:55 Clear 41 4.9 30 -1 66 66 W 5 7 30.18 1022 10 16.0934 0 0
1:15 am 01:15 Clear 40 4.6 30 -1.2 66 66 W 3 6 30.18 1022 10 16.0934 0 0
1:35 am 01:35 Clear 40 4.6 30 -1.2 66 66 W 3 6 30.18 1022 10 16.0934 0 0
1:55 am 01:55 Clear 38 3.5 30 -1.1 72 72 W 3 6 30.21 1023 10 16.0934 0 0
2:15 am 02:15 Clear 37 3 31 -0.6 77 77 W 3 6 30.21 1023 10 16.0934 0 0
2:35 am 02:35 Clear 37 2.6 31 -0.4 81 81 Calm 30.21 1023 10 16.0934 0 0
2:55 am 02:55 Clear 38 3.6 31 -0.3 76 76 Calm 30.21 1023 10 16.0934 0 0
3:15 am 03:15 Clear 37 3 31 -0.6 77 77 WSW 3 6 30.18 1022 10 16.0934 0 0
3:35 am 03:35 Clear 38 3.4 30 -1.2 72 72 W 5 7 30.18 1022 10 16.0934 0 0
3:55 am 03:55 Clear 40 4.5 29 -1.5 65 65 WSW 3 6 30.15 1021 10 16.0934 0 0
4:15 am 04:15 Clear 41 5.1 29 -1.6 62 62 WSW 3 6 30.15 1021 10 16.0934 0 0
4:35 am 04:35 Clear 41 5.1 29 -1.4 63 63 W 5 7 30.15 1021 10 16.0934 0 0
4:55 am 04:55 Clear 41 4.8 31 -0.5 69 69 W 9 15 30.15 1021 10 16.0934 0 0
5:15 am 05:15 Clear 42 5.3 31 -0.5 67 67 W 9 15 30.15 1021 10 16.0934 0 0
5:35 am 05:35 Clear 41 5.2 31 -0.7 66 66 W 8 13 30.15 1021 10 16.0934 0 0
5:55 am 05:55 Clear 41 5.1 31 -0.6 67 67 W 7 11 30.15 1021 10 16.0934 0 0
6:15 am 06:15 Clear 41 5.1 31 -0.6 67 67 W 9 15 30.15 1021 10 16.0934 0 0
6:35 am 06:35 Clear 42 5.7 31 -0.6 64 64 W 9 15 30.15 1021 10 16.0934 0 0
6:55 am 06:55 Sunny 42 5.5 31 -0.5 66 66 W 10 17 30.15 1021 10 16.0934 0 0
7:15 am 07:15 Sunny 42 5.7 31 -0.5 65 65 W 9 15 30.15 1021 10 16.0934 0 0
7:35 am 07:35 Sunny 43 6.1 32 0 65 65 WSW 6 9 30.15 1021 10 16.0934 0 0
7:55 am 07:55 Sunny 45 7.4 32 0.1 60 60 WSW 7 11 30.12 1020 10 16.0934 0 0
8:15 am 08:15 Sunny 47 8.2 33 0.6 59 59 W 6 9 30.12 1020 10 16.0934 0 0
8:35 am 08:35 Sunny 48 8.9 34 0.9 58 58 W 8 13 30.12 1020 10 16.0934 0 0
8:55 am 08:55 Sunny 50 10.1 35 1.5 55 55 WSW 9 15 30.09 1019 10 16.0934 0 0
9:15 am 09:15 Sunny 53 11.4 36 2.3 54 54 W 12 19 30.06 1018 10 16.0934 0 0
9:35 am 09:35 Sunny 55 12.8 37 2.6 50 50 W 13 20 30.06 1018 10 16.0934 0 0
9:55 am 09:55 Sunny 56 13.4 37 3 50 50 W 9 15 30.03 1017 10 16.0934 0 0
10:15 am 10:15 Sunny 59 15 38 3.4 46 46 W 9 15 30.03 1017 10 16.0934 0 0
10:35 am 10:35 Sunny 61 16 38 3.1 42 42 WNW 10 17 30.03 1017 10 16.0934 0 0
10:55 am 10:55 Sunny 62 16.7 39 3.7 42 42 WNW 12 19 30 1016 10 16.0934 0 0
11:15 am 11:15 Sunny 64 18 38 3.5 38 38 WNW 10 17 30 1016 10 16.0934 0 0
11:35 am 11:35 Sunny 67 19.6 39 3.9 36 36 NW 12 19 30 1016 10 16.0934 0 0
11:55 am 11:55 Sunny 69 20.3 39 3.9 34 34 WNW 10 17 29.97 1015 10 16.0934 0 0
12:15 pm 12:15 Sunny 70 21.1 37 2.8 30 30 WNW 17 28 29.94 1014 10 16.0934 0 0
12:35 pm 12:35 Sunny 71 21.5 36 2.3 28 28 WNW 15 24 29.94 1014 10 16.0934 0 0
12:55 pm 12:55 Sunny 71 21.8 35 1.7 27 27 NW 15 24 29.94 1014 10 16.0934 0 0
1:15 pm 13:15 Sunny 72 22 35 1.7 26 26 NW 15 24 29.94 1014 10 16.0934 0 0
1:35 pm 13:35 Sunny 72 22.4 35 1.5 25 25 WNW 14 22 29.91 1013 10 16.0934 0 0
1:55 pm 13:55 Sunny 73 22.6 33 0.7 24 24 NW 12 19 29.91 1013 10 16.0934 0 0
2:15 pm 14:15 Sunny 74 23.1 34 1.3 24 24 WNW 14 22 29.88 1012 10 16.0934 0 0
2:35 pm 14:35 Sunny 74 23.2 35 1.6 24 24 WNW 8 13 29.88 1012 10 16.0934 0 0
2:55 pm 14:55 Sunny 74 23.6 36 2.3 25 25 WNW 12 19 29.85 1011 10 16.0934 0 0
3:15 pm 15:15 Sunny 75 23.7 36 2.4 25 25 NW 12 19 29.85 1011 10 16.0934 0 0
3:35 pm 15:35 Sunny 76 24.2 37 3 25 25 N 7 11 29.85 1011 10 16.0934 0 0
3:55 pm 15:55 Sunny 75 24.1 36 2.4 24 24 NW 8 13 29.85 1011 10 16.0934 0 0
4:15 pm 16:15 Sunny 76 24.5 35 1.5 22 22 N 7 11 29.83 1010 10 16.0934 0 0
4:35 pm 16:35 Sunny 76 24.6 35 1.4 22 22 NNW 10 17 29.83 1010 10 16.0934 0 0
4:55 pm 16:55 Sunny 76 24.4 34 1 22 22 N 8 13 29.83 1010 10 16.0934 0 0
5:15 pm 17:15 Sunny 76 24.4 34 1 22 22 NNW 16 26 29.83 1010 10 16.0934 0 0
5:35 pm 17:35 Sunny 76 24.2 34 1.2 22 22 N 9 15 29.83 1010 10 16.0934 0 0
5:55 pm 17:55 Sunny 76 24.2 35 1.4 22 22 NNW 15 24 29.83 1010 10 16.0934 0 0
6:15 pm 18:15 Sunny 76 24.2 35 1.8 23 23 N 6 9 29.83 1010 10 16.0934 0 0
6:35 pm 18:35 Sunny 75 23.9 36 2 24 24 N 12 19 29.83 1010 10 16.0934 0 0
6:55 pm 18:55 Sunny 74 23.6 36 2 24 24 N 10 17 29.85 1011 10 16.0934 0 0
7:15 pm 19:15 Sunny 73 23 36 2.3 26 26 N 15 24 29.85 1011 10 16.0934 0 0
7:35 pm 19:35 Sunny 72 22.2 37 2.7 28 28 N 10 17 29.88 1012 10 16.0934 0 0
7:55 pm 19:55 Sunny 69 20.7 38 3.5 32 32 NNE 18 30 29.88 1012 10 16.0934 0 0
8:15 pm 20:15 Sunny 66 18.9 39 4.1 38 38 NE 15 24 29.91 1013 10 16.0934 0 0
8:35 pm 20:35 Clear 62 16.8 39 4.1 43 43 NE 13 20 29.91 1013 10 16.0934 0 0
8:55 pm 20:55 Clear 59 15.2 39 4.1 48 48 NE 10 17 29.97 1015 10 16.0934 0 0
9:15 pm 21:15 Clear 57 14 39 4 51 51 NNE 12 19 29.97 1015 10 16.0934 0 0
9:35 pm 21:35 Clear 56 13.3 39 3.7 52 52 NE 9 15 29.97 1015 10 16.0934 0 0
9:55 pm 21:55 Clear 56 13.4 38 3.5 51 51 NE 10 17 30 1016 10 16.0934 0 0
10:15 pm 22:15 Clear 54 12.1 38 3.5 56 56 NE 10 17 30.03 1017 10 16.0934 0 0
10:35 pm 22:35 Clear 52 11.3 38 3.2 58 58 NE 10 17 30.03 1017 10 16.0934 0 0
10:55 pm 22:55 Clear 51 10.7 38 3.1 60 60 NE 10 17 30.06 1018 10 16.0934 0 0
11:15 pm 23:15 Clear 52 11.2 37 3 57 57 NE 10 17 30.06 1018 10 16.0934 0 0
11:35 pm 23:35 Clear 50 10.2 37 2.8 60 60 ENE 8 13 30.06 1018 10 16.0934 0 0
11:55 pm 23:55 Clear 49 9.3 37 2.7 64 64 NE 10 17 30.09 1019 10 16.0934 0 0

Powered by AerisWeather